Theta_e
319 315 314 316 316 312 316 315 315 317 320 318 318 317 317 317 318 318 331 336 342 340 337 337 337 336 333 333 335 335 335 338 341 343 342 340 339 339 338 338 338 339 340 341 339 339 339 340 336
315 314 316 310 316 317 316 315 316 316 318 317 317 317 318 324 336 336 338 338 341 338 337 337 337 336 332 332 335 335 336 336 338 341 341 340 340 340 338 338 338 338 339 338 338 338 339 337 334
313 318 315 312 313 317 317 317 317 315 315 317 317 317 318 327 337 338 334 335 341 337 337 337 336 336 332 332 333 335 336 334 335 336 337 337 337 337 337 336 337 336 335 337 337 337 337 334 333
315 314 309 313 315 315 316 318 317 315 316 315 316 319 319 326 335 336 334 334 339 338 337 337 336 336 333 332 333 333 333 332 335 336 335 336 336 336 334 334 334 334 336 335 335 335 333 331 331
313 307 312 311 311 312 313 314 313 314 315 317 318 320 320 328 334 335 334 333 337 338 337 338 338 337 336 333 334 334 333 334 335 333 334 333 334 333 334 334 334 334 335 335 334 330 328 328 326
311 305 309 311 311 312 313 314 315 316 315 318 319 318 320 329 333 335 334 332 334 336 338 339 339 339 337 335 334 335 334 334 335 332 332 332 330 326 329 332 333 332 332 332 330 323 325 328 328
311 309 310 310 311 314 316 315 315 315 318 318 318 320 328 332 332 336 333 334 339 339 339 341 340 339 339 338 337 336 336 334 334 334 333 328 326 326 324 331 331 331 331 330 327 324 328 329 327
309 310 312 312 314 314 314 314 316 315 316 315 318 328 331 330 333 336 336 334 336 337 338 338 340 340 340 340 341 340 337 337 335 335 329 323 326 327 324 330 331 330 329 328 328 328 329 329 325
307 311 312 314 312 313 313 315 315 314 315 315 317 322 324 329 332 333 333 335 338 338 338 338 339 339 339 339 342 340 339 339 336 334 329 324 330 328 326 331 332 330 328 327 328 329 330 325 323
311 310 311 311 311 313 314 314 313 314 314 314 315 319 330 332 333 333 334 334 337 338 338 337 338 337 336 337 338 340 340 341 336 334 328 328 330 327 328 324 331 329 326 325 328 328 324 320 323
310 314 310 312 311 311 312 312 312 313 312 312 313 314 332 332 332 333 334 334 335 335 336 336 336 335 332 331 330 331 338 339 337 333 327 328 328 326 324 326 331 329 325 325 326 324 320 320 323
315 312 312 313 313 312 311 312 312 311 312 312 311 312 330 332 333 332 332 332 333 334 334 335 334 333 331 331 330 329 329 331 331 332 330 327 327 326 326 324 323 330 325 324 324 322 319 320 322
314 314 314 314 314 313 312 311 312 312 311 312 311 312 327 331 332 333 332 332 332 332 333 334 333 333 332 332 330 330 329 327 329 331 330 329 327 328 326 329 330 330 325 322 323 321 319 320 321
314 315 314 313 313 313 315 314 313 313 313 313 313 314 315 329 331 331 331 330 331 331 333 335 335 334 333 330 329 327 324 325 328 330 329 330 328 328 326 330 329 329 323 320 323 320 319 319 320
310 310 309 311 313 314 314 316 312 312 312 315 316 315 315 314 319 329 330 330 330 331 333 334 335 334 332 330 327 324 324 324 325 326 327 329 329 328 330 329 328 328 321 316 321 319 318 318 321
309 310 311 314 314 314 314 318 316 314 314 314 314 314 314 314 313 319 327 329 329 331 333 334 335 332 330 329 327 327 326 326 328 326 324 326 328 328 329 327 327 328 318 316 319 318 318 319 320
306 309 310 311 312 312 311 311 313 312 313 314 314 313 313 314 314 314 319 327 330 332 334 335 332 330 330 330 329 328 327 325 328 327 325 325 328 328 327 327 326 327 316 314 316 316 317 318 320
309 307 308 310 309 310 309 309 308 310 312 312 312 312 312 313 314 314 320 329 330 333 334 333 330 330 331 331 331 330 329 328 328 326 325 325 328 327 327 325 326 324 314 313 313 314 317 318 320
307 306 306 305 305 305 305 305 306 307 309 310 311 311 313 313 314 315 327 329 330 332 332 330 330 330 330 331 330 328 328 328 328 327 326 325 327 328 326 325 325 320 313 311 311 314 318 317 319
303 304 304 303 303 304 304 306 308 308 308 310 312 313 314 314 313 324 326 327 329 329 329 329 330 330 329 329 331 329 329 327 328 328 328 325 326 326 325 324 322 317 313 311 313 316 317 318 319
305 304 304 304 304 306 306 309 310 310 310 313 313 313 314 314 313 324 327 326 327 327 327 328 329 329 329 329 330 329 329 327 328 329 329 329 328 327 325 324 322 317 315 312 314 317 319 319 318
312 306 306 305 308 311 310 313 312 310 310 311 311 311 312 312 315 324 328 325 325 326 326 327 328 328 328 328 328 328 327 328 328 327 328 328 329 328 327 326 323 318 317 314 316 319 321 320 317
312 311 311 311 310 311 310 310 312 310 312 311 310 311 310 312 318 326 328 327 326 326 325 326 326 327 327 327 327 327 327 327 327 327 327 328 328 328 328 326 322 320 318 319 316 321 321 321 318
309 309 310 311 310 313 311 311 312 310 311 311 312 313 319 318 315 321 326 327 325 324 324 325 326 326 325 324 324 324 324 325 325 326 327 327 328 327 328 328 324 322 321 321 320 321 321 320 318
307 308 309 310 314 314 310 312 311 311 311 313 321 322 321 320 320 318 325 326 324 322 323 324 324 324 323 323 323 324 323 323 323 323 324 325 327 327 327 327 326 325 323 323 322 321 321 319 318
306 308 310 309 311 310 311 314 312 314 316 320 321 321 321 321 320 323 326 326 324 323 322 323 324 324 323 323 322 323 323 323 322 323 323 324 324 326 324 325 326 326 325 324 323 321 320 318 318
310 308 308 308 309 315 311 311 310 314 319 320 321 322 321 320 318 321 327 325 324 323 322 323 323 323 323 323 323 322 323 323 324 324 325 325 326 325 324 324 324 325 325 324 322 320 320 320 321
312 310 309 310 314 312 310 314 314 315 320 320 319 322 321 318 317 319 327 325 324 323 322 323 323 323 323 322 323 323 323 322 322 323 324 324 325 324 323 323 324 324 324 323 322 321 322 320 320
309 313 312 313 311 314 312 310 317 321 321 319 319 319 318 318 320 319 322 325 325 323 322 322 322 322 322 322 322 323 323 322 322 323 323 323 323 322 321 322 322 322 322 322 322 323 320 320 319
309 313 314 316 317 315 315 313 311 311 321 319 320 318 318 319 319 317 317 325 323 323 322 322 322 322 322 322 322 322 322 322 322 322 322 322 322 322 322 321 320 320 320 321 321 319 319 318 318
Wind_Speed
9 3 1 4 3 5 3 6 3 3 2 4 4 5 7 4 5 4 14 17 19 17 18 18 18 22 24 23 21 21 25 27 29 34 38 38 37 36 34 31 30 27 26 26 25 25 24 26 27
6 4 3 3 4 2 5 4 5 8 4 3 2 4 3 3 1 4 8 19 19 19 18 19 19 21 25 24 23 21 23 27 29 32 36 35 33 32 33 30 27 25 25 24 25 24 25 26 28
5 1 3 4 3 5 5 4 2 9 5 4 1 1 7 4 3 10 10 24 23 22 21 20 19 21 25 25 25 24 21 23 28 32 32 31 30 30 31 29 28 26 24 24 24 24 25 27 26
3 5 4 3 7 7 5 4 4 10 7 4 4 2 1 8 13 20 20 26 25 23 22 20 20 20 23 25 25 25 24 24 28 30 31 31 29 26 28 29 28 25 24 24 25 24 26 27 26
4 3 1 2 6 5 5 6 6 8 5 6 4 3 3 8 5 22 26 29 27 25 23 22 21 20 22 24 25 25 24 25 27 32 33 34 28 19 23 25 26 27 25 25 26 27 30 30 28
3 3 3 5 6 5 4 8 4 5 7 4 2 4 4 7 10 24 31 31 27 27 25 23 22 22 22 24 25 25 25 27 29 29 29 31 33 23 10 18 23 25 25 25 28 34 36 33 28
6 4 5 5 6 8 3 4 4 6 2 6 2 6 4 5 20 28 30 28 28 24 23 23 25 23 23 24 24 25 27 29 26 29 34 36 18 16 23 21 24 24 24 25 32 38 37 33 25
5 4 5 5 3 11 5 4 3 5 7 6 5 5 5 7 17 27 26 22 23 24 23 24 24 24 24 25 24 25 26 27 30 35 37 28 25 34 30 25 24 26 26 29 34 36 35 31 25
5 3 4 6 7 8 6 7 2 5 5 4 3 4 6 6 20 20 17 18 21 22 22 22 24 24 24 24 25 25 26 30 31 37 36 28 32 31 31 31 27 24 27 33 35 34 32 24 23
5 5 10 7 6 9 7 4 15 4 12 9 8 2 1 18 23 15 14 17 23 25 25 24 24 24 23 24 25 28 29 32 34 36 39 39 39 31 36 33 27 28 27 35 35 33 28 22 29
6 7 6 6 8 8 13 4 5 5 9 10 11 9 6 6 16 17 18 20 32 32 28 27 26 25 24 23 23 24 30 29 27 40 45 44 40 35 35 31 27 28 28 34 35 32 27 26 33
5 5 5 4 7 6 6 9 5 9 11 11 12 6 5 9 13 14 18 24 29 31 33 30 27 27 25 22 20 22 25 26 26 38 48 43 39 39 37 37 39 32 31 36 38 34 27 28 35
6 5 8 8 11 10 10 11 12 10 11 12 10 6 9 9 14 25 30 27 28 30 31 32 29 28 25 24 21 22 23 28 27 35 38 42 39 38 38 31 36 36 35 39 38 34 29 29 30
4 3 6 7 7 6 9 12 4 7 9 8 6 9 8 11 15 20 20 27 33 34 32 32 33 29 26 23 23 24 24 26 30 31 38 40 43 40 40 33 36 38 36 40 40 35 31 27 25
3 5 5 6 6 7 2 18 8 8 6 6 9 8 8 6 12 17 33 34 39 38 33 35 33 28 24 22 22 23 22 21 25 31 35 44 43 45 39 37 36 40 38 41 40 35 30 26 22
2 2 4 4 6 4 6 33 1 9 5 10 10 8 8 10 7 19 32 32 34 32 32 33 31 27 25 24 22 22 20 20 19 26 35 41 38 52 38 38 38 40 40 41 40 37 31 26 23
1 9 6 4 6 6 7 19 2 7 11 9 9 9 9 11 12 13 28 35 37 36 33 33 31 28 25 22 22 22 19 19 18 27 33 37 30 44 38 38 38 41 40 39 42 37 36 27 24
6 6 4 4 4 3 6 19 9 9 10 11 9 10 9 9 18 14 17 25 29 34 35 34 31 28 24 21 21 22 17 15 13 16 31 34 30 39 39 38 38 39 41 41 40 37 35 28 26
2 4 7 2 4 5 16 17 14 11 9 11 10 13 14 11 15 15 13 23 22 31 35 36 33 30 26 22 19 18 18 17 14 13 30 34 35 40 40 39 40 39 41 43 43 38 37 27 26
6 8 13 9 10 7 11 20 17 7 8 9 10 14 15 16 9 7 10 22 33 29 34 36 34 32 29 25 20 14 19 19 17 20 29 34 36 39 36 36 37 40 37 42 40 34 32 28 31
7 9 4 12 6 5 8 19 12 7 5 7 9 12 14 16 10 9 9 16 22 30 35 37 35 33 29 25 22 17 19 18 17 23 25 33 38 39 37 38 39 40 38 41 43 38 32 24 34
13 8 13 11 3 9 6 15 20 6 9 6 9 13 13 9 10 9 11 11 23 28 30 33 34 32 29 27 25 26 16 17 16 21 25 26 33 36 38 40 40 43 40 38 37 38 37 31 27
11 8 9 11 9 2 5 2 16 8 16 13 10 10 9 10 10 11 15 19 21 23 30 31 31 30 29 27 27 26 26 19 21 24 25 28 28 38 39 36 36 36 38 36 41 34 34 34 30
3 2 2 1 1 6 6 6 23 4 9 7 10 16 11 11 10 11 14 18 18 20 23 30 30 30 28 28 26 26 23 21 18 21 24 28 31 35 39 40 40 39 35 35 37 38 37 36 34
4 5 2 3 2 11 5 4 15 8 9 8 8 12 12 15 19 13 11 15 21 26 26 26 29 26 27 29 28 26 24 21 22 25 26 23 28 31 44 41 38 38 39 39 38 38 37 37 34
5 8 5 6 5 7 4 6 5 4 3 6 8 7 14 21 22 22 14 18 21 27 27 26 28 25 28 29 27 25 22 21 22 24 26 26 29 25 38 43 41 37 37 42 38 35 36 32 31
2 3 4 4 3 2 5 6 6 4 7 8 8 12 13 18 21 24 6 11 20 27 29 30 27 25 26 29 28 25 23 21 23 23 25 29 32 32 33 43 40 39 39 39 36 31 34 29 27
4 3 2 3 3 6 5 3 5 7 5 8 12 13 15 22 26 21 2 6 15 21 26 26 27 26 26 27 26 26 24 21 19 17 19 20 23 28 34 35 38 39 37 39 39 34 33 28 27
4 3 4 1 1 3 3 5 2 2 1 7 10 12 18 25 24 21 13 7 12 12 17 24 25 25 27 27 26 25 24 20 18 17 19 20 23 29 28 34 33 37 39 39 35 33 34 31 25
4 4 3 3 4 2 3 5 5 12 2 3 2 8 14 21 24 20 18 7 12 9 11 17 22 25 27 27 25 24 23 22 18 18 20 20 22 26 32 28 30 33 36 39 37 33 26 26 25
Wind_Direction
206 210 161 57 43 60 269 262 242 279 247 214 147 156 180 172 163 210 166 190 204 180 170 167 171 176 175 171 168 161 153 153 155 160 160 156 156 157 156 156 153 146 139 139 139 142 141 136 143
168 154 61 92 91 42 267 264 255 260 264 172 119 99 115 220 143 159 153 188 195 182 178 172 174 177 178 174 173 169 163 161 158 159 161 158 154 156 156 157 154 150 145 142 146 146 141 141 149
134 112 84 98 129 192 220 228 354 335 320 306 189 211 151 210 177 179 181 175 184 185 183 176 175 179 181 180 178 176 174 167 165 164 162 162 163 165 166 164 160 156 150 151 150 146 143 150 153
160 21 37 104 224 254 223 250 314 319 310 233 253 201 266 213 162 188 174 178 186 188 185 181 180 181 184 185 184 183 183 178 171 168 163 163 163 165 169 166 163 158 155 156 153 150 153 154 150
61 56 52 255 249 254 238 261 264 256 233 240 203 242 262 319 201 174 175 182 187 189 187 186 183 182 186 190 189 189 188 184 179 177 166 158 154 151 168 165 164 157 160 159 158 157 155 151 150
53 99 75 257 251 252 261 253 263 237 228 236 196 150 230 264 211 180 177 188 191 189 188 191 187 186 189 194 195 195 193 190 186 181 169 161 151 156 193 174 174 157 162 164 162 155 153 149 146
130 102 207 255 282 297 227 310 298 289 242 234 165 154 266 262 210 183 184 190 194 195 190 194 192 192 193 197 199 200 200 195 191 188 176 152 183 185 174 200 188 161 165 167 163 157 155 150 145
125 114 173 241 248 277 215 312 264 17 308 279 163 192 243 233 196 182 184 191 191 193 196 195 195 195 196 198 199 205 207 204 195 189 177 184 180 176 178 204 189 174 172 172 165 160 158 157 151
129 105 194 232 179 252 313 360 303 322 264 318 289 146 265 197 181 175 175 181 187 192 193 192 194 198 202 203 200 205 214 208 205 199 197 192 172 172 174 191 184 185 175 172 167 165 164 168 162
159 164 210 215 203 276 276 290 295 343 306 288 306 259 358 166 166 169 183 192 197 199 201 200 199 200 203 205 208 207 211 216 210 202 193 180 179 181 182 187 187 190 179 173 170 168 168 162 158
197 218 190 246 241 239 281 240 247 271 283 250 266 263 162 166 179 191 204 200 204 208 207 205 203 205 203 203 204 211 214 216 208 201 191 189 190 190 188 184 187 191 179 177 173 172 169 167 165
250 202 199 235 261 268 240 292 247 227 244 257 248 258 183 187 193 206 212 217 213 214 213 212 206 204 206 206 213 214 209 212 206 195 196 192 191 184 187 183 189 192 182 183 176 173 171 172 172
217 243 240 229 259 267 271 252 259 248 246 264 278 235 216 211 212 213 217 221 224 225 220 212 204 205 210 210 216 217 210 205 203 197 189 191 186 185 182 181 185 192 186 187 180 176 166 165 169
272 254 258 251 237 242 267 270 210 254 262 281 289 291 224 210 218 227 221 224 223 227 223 213 204 205 210 213 213 210 197 193 196 199 201 192 186 186 188 186 181 191 190 189 183 179 168 169 173
250 291 285 223 231 229 254 270 230 252 293 285 290 285 287 237 224 217 221 219 221 221 219 212 201 200 211 217 209 204 201 202 205 216 209 197 186 181 184 182 185 191 191 189 187 181 172 170 168
313 263 259 229 195 251 113 272 130 289 292 291 295 293 298 290 235 255 235 223 221 213 208 202 195 197 209 209 206 207 214 215 230 229 218 210 202 181 177 174 186 192 191 189 187 183 170 174 164
285 256 237 282 262 259 180 277 242 317 293 284 282 285 291 299 303 285 253 221 213 206 197 193 193 195 200 203 208 209 214 217 235 234 207 203 193 166 169 174 186 190 191 187 189 184 180 171 164
209 246 239 191 263 261 264 279 287 275 279 271 281 290 292 295 291 297 264 213 197 192 191 191 192 192 191 195 207 212 207 218 226 188 175 183 164 179 182 184 192 189 189 188 188 188 184 171 168
260 255 260 216 227 299 279 277 279 279 284 287 289 292 291 286 289 287 208 180 183 182 184 188 185 183 182 179 176 180 191 198 205 206 181 176 176 174 177 182 193 190 188 188 190 188 181 171 170
242 259 275 290 250 186 271 276 279 249 251 245 267 281 286 294 287 271 181 177 177 179 181 185 183 180 184 185 180 175 184 187 180 177 178 185 186 193 193 189 188 188 186 189 188 185 178 179 179
228 235 239 255 320 254 286 281 270 253 247 255 257 267 278 277 264 246 194 194 176 180 182 183 181 181 185 185 180 163 177 176 177 178 177 177 181 183 187 192 191 189 189 190 189 188 184 178 182
255 198 241 260 246 272 177 285 287 257 282 269 287 283 274 271 244 224 195 189 185 192 183 183 182 183 185 188 182 176 163 168 191 182 182 190 185 190 196 201 197 193 190 191 191 194 189 183 181
245 209 233 245 255 317 209 231 289 353 301 292 292 293 275 248 232 217 201 201 193 189 181 180 181 183 184 191 195 190 185 182 181 191 194 197 195 201 196 195 193 192 191 193 193 196 193 191 184
232 171 268 358 174 247 265 171 281 230 271 297 315 311 331 324 272 233 213 179 181 183 184 178 179 179 191 198 196 193 189 190 193 190 193 205 207 206 199 199 193 194 191 194 195 198 197 192 191
165 103 331 298 201 251 178 236 257 288 283 306 323 315 332 338 348 297 184 178 178 177 183 180 176 177 190 196 198 197 195 200 210 215 214 210 211 201 201 199 191 191 194 197 199 198 197 195 190
185 161 169 233 225 261 222 241 245 247 352 330 324 343 337 357 347 325 219 186 181 178 177 181 177 176 187 193 198 200 200 206 221 228 222 222 220 213 189 191 192 190 188 193 194 193 192 189 185
228 160 209 244 252 263 235 284 310 314 3 337 345 348 342 353 342 327 212 201 185 174 179 183 175 179 188 196 196 199 200 212 214 223 232 237 231 203 194 187 185 184 188 191 186 180 181 190 195
83 3 56 359 224 240 262 248 243 303 344 345 347 342 343 343 332 337 211 202 201 185 175 179 178 183 188 197 196 195 195 204 207 210 212 197 189 187 184 178 188 185 186 185 186 182 192 190 183
15 36 35 213 281 288 275 269 192 320 13 351 4 360 348 334 323 322 311 193 184 182 185 173 175 180 186 193 199 196 192 194 192 192 191 190 173 168 167 173 175 171 174 174 175 180 182 183 195
131 123 104 146 360 297 241 269 55 19 81 205 37 4 6 309 310 310 324 175 142 154 197 188 181 181 186 189 193 200 196 197 188 186 185 184 179 183 177 168 161 161 164 169 172 171 181 197 205